Wind_Speed
30 32 30 26 25 28 29 28 26 25 24 24 24 22 19 19 16 15 16 14 11 18 19 17 15 14 18 19 24 25 20 18 12 9 9 8 10 9 9 10 9 8 8 8 8 7 7 7 8 10 13 14 16 17 18 19 18 18 18 18 18 18 18 17 17 16 15 14 12 11 11 10 10 10 9 9 8 7 7 7 6 5 4 5 5 6
33 31 24 21 24 28 30 30 30 29 27 26 26 24 22 22 18 17 19 19 15 21 19 16 14 16 18 19 27 25 17 18 15 10 10 9 11 11 10 11 10 9 8 8 8 7 7 7 8 10 11 14 15 17 18 19 19 19 19 19 19 19 19 19 19 18 16 14 13 11 11 10 10 10 10 10 9 8 7 7 6 5 4 5 6 6
34 25 18 21 25 27 30 32 33 32 29 28 27 27 26 25 20 17 21 23 18 21 20 17 16 16 16 19 27 24 15 18 18 13 12 11 12 12 11 11 11 10 9 8 8 8 7 7 7 9 11 13 15 17 18 19 20 19 20 20 19 20 20 20 19 18 16 14 12 11 11 11 11 11 11 10 10 9 8 7 6 5 5 5 5 6
30 21 20 25 25 27 29 30 34 34 34 32 30 30 28 25 21 18 20 23 22 23 23 19 20 18 15 20 27 24 16 19 20 16 15 12 12 14 15 13 11 11 11 10 9 9 8 7 7 9 12 14 16 17 18 19 19 19 20 20 20 21 21 21 19 18 16 13 12 11 11 11 11 11 11 11 10 10 9 8 7 6 6 5 5 5
29 24 26 28 26 27 28 30 34 36 37 35 32 32 28 26 24 19 16 15 18 25 26 22 23 21 17 21 26 21 16 22 23 20 18 15 13 16 17 15 12 11 12 12 10 10 9 8 8 9 12 14 15 17 18 19 20 20 20 21 22 22 22 21 19 18 15 13 12 12 12 11 11 12 12 12 11 10 9 8 8 8 7 6 5 4
30 29 32 31 29 29 29 30 32 33 36 36 34 33 29 27 26 23 22 16 16 23 28 25 24 24 21 23 27 23 19 22 24 22 20 15 14 17 17 16 15 13 12 13 12 12 11 10 8 9 11 13 15 17 19 21 21 22 22 22 22 22 22 21 19 17 16 15 15 14 13 13 13 13 12 11 10 10 9 9 9 9 8 6 5 4
32 34 36 33 30 29 31 31 31 31 34 36 34 32 30 30 30 27 31 28 24 23 26 29 27 26 26 25 25 26 23 24 27 26 22 15 12 16 16 15 16 14 12 13 14 13 13 12 9 9 11 13 16 18 19 21 22 22 22 21 21 21 21 20 18 18 17 17 16 16 15 14 13 12 10 10 10 10 10 9 9 9 8 6 4 4
33 36 37 34 31 31 33 31 30 30 31 33 32 32 32 32 33 31 33 36 32 26 27 32 29 27 28 27 26 26 23 25 30 28 25 19 12 12 15 16 16 15 13 13 14 15 14 13 12 11 12 15 17 19 19 20 21 22 22 21 20 20 19 18 18 18 18 18 18 17 16 14 12 11 11 11 11 11 10 9 9 9 7 6 5 4
32 35 36 35 34 34 32 28 27 29 31 30 31 34 34 33 34 33 34 38 36 32 32 30 30 29 29 28 26 26 24 26 31 31 29 26 17 10 12 16 15 16 16 14 14 15 15 14 14 14 13 15 18 19 19 20 22 23 24 22 20 19 17 17 17 18 18 18 17 16 15 14 12 11 12 12 11 11 10 9 9 8 7 6 5 4
35 36 37 36 36 35 31 28 28 31 31 29 30 34 35 35 36 35 36 39 40 40 40 32 28 30 30 31 28 27 28 28 31 32 31 29 23 14 10 14 17 18 17 15 14 14 15 15 16 16 14 14 17 19 20 21 22 23 23 22 19 17 17 16 17 17 17 16 15 14 13 13 12 12 12 12 11 10 9 8 7 7 7 6 5 4
39 38 39 39 37 36 33 31 30 32 31 28 30 35 37 38 39 40 40 41 44 47 47 40 33 32 33 34 32 30 29 27 28 30 31 30 24 16 9 10 17 19 17 17 15 13 15 16 15 15 13 13 16 19 20 20 21 22 22 21 18 17 16 16 16 16 16 15 13 13 12 12 13 13 12 11 10 9 8 7 6 6 6 5 5 4
44 43 42 41 38 37 36 35 33 33 32 30 31 35 39 40 38 39 42 45 49 50 47 43 40 38 38 35 31 30 28 26 24 24 27 29 24 16 10 7 16 22 20 19 16 14 15 16 14 13 13 13 15 18 19 20 20 21 21 20 18 17 16 15 15 15 15 14 13 12 12 12 12 12 12 11 10 9 8 7 6 6 6 5 4 3
47 45 43 42 40 39 39 38 37 36 35 34 34 36 40 41 39 39 43 48 51 48 43 40 41 42 43 39 30 26 29 26 20 20 24 26 23 19 11 8 14 19 18 16 16 15 15 16 14 13 13 13 14 16 18 19 20 21 21 20 18 17 16 16 15 15 14 13 12 11 11 12 12 12 11 10 10 9 8 7 6 6 5 5 4 3
47 45 45 44 42 42 41 41 42 41 39 37 37 38 39 40 40 42 44 46 47 44 40 40 42 44 44 41 34 30 32 27 17 20 26 25 24 24 16 11 13 13 13 12 17 19 17 15 15 13 12 13 14 17 19 20 21 21 20 20 19 18 18 17 16 15 15 13 12 12 11 11 12 12 11 10 10 9 8 7 7 6 5 5 4 4
50 48 47 46 44 44 43 43 42 41 39 37 36 35 35 36 37 39 40 41 42 41 39 41 44 45 44 41 38 36 37 32 23 23 29 28 27 29 25 18 15 14 14 15 20 22 19 16 17 15 12 14 16 19 20 21 22 21 21 20 20 19 18 17 16 15 14 14 13 12 11 11 12 12 12 10 9 9 8 7 6 6 6 5 4 4
53 50 46 45 46 44 42 42 41 41 39 37 36 36 35 34 35 36 37 37 38 40 40 43 43 42 42 41 38 38 38 36 32 30 31 30 30 33 31 25 19 14 14 17 20 22 21 18 18 16 13 14 17 20 21 22 22 21 21 21 21 20 20 19 18 16 15 14 14 13 12 11 11 12 11 11 10 9 9 8 7 6 6 6 6 6
52 51 47 46 46 45 42 42 43 43 40 38 39 39 35 32 32 34 36 36 37 39 39 40 41 39 40 39 36 38 38 36 35 34 34 33 32 34 33 29 22 15 14 16 18 21 21 20 19 17 15 14 16 20 22 22 23 23 23 23 23 22 21 20 18 18 17 16 14 13 12 11 11 11 11 11 11 10 9 8 8 7 7 7 7 7
51 51 49 46 46 45 43 42 43 43 41 40 41 39 35 34 33 33 37 37 37 38 35 35 36 36 37 34 31 34 35 32 30 30 34 37 35 33 33 30 22 16 15 16 18 21 22 21 20 18 16 14 15 20 23 24 25 25 25 24 24 22 21 20 19 19 18 16 15 14 13 12 11 11 12 12 11 9 8 8 8 8 8 8 8 8
49 49 46 46 47 45 43 43 44 43 42 41 40 39 37 36 36 37 39 38 37 36 33 31 31 31 32 30 27 28 28 26 24 24 29 34 34 33 32 30 25 18 16 16 19 21 22 21 21 19 15 13 15 19 24 26 26 26 25 24 23 22 22 21 20 19 17 16 15 14 13 12 11 11 11 11 10 9 9 9 9 9 9 9 9 9
50 50 47 46 46 43 42 45 47 46 44 43 42 41 39 37 37 39 39 38 35 32 30 27 26 27 28 27 24 22 20 19 19 20 24 28 30 31 32 32 29 21 14 15 17 18 19 21 20 18 16 14 16 19 23 26 27 27 26 24 22 21 21 20 18 16 16 15 14 13 12 11 10 10 10 10 10 10 10 10 10 9 9 10 10 10
54 54 52 45 37 34 41 48 51 47 45 46 46 44 43 40 37 37 38 37 35 32 28 25 24 24 22 19 20 20 18 17 14 16 22 26 28 30 31 31 29 21 14 15 17 16 17 20 20 18 18 17 19 20 22 26 27 27 25 23 22 20 19 17 15 14 14 14 14 13 12 11 10 10 10 10 10 11 11 11 11 11 11 11 11 11
56 57 55 45 34 31 39 45 49 48 46 46 47 46 45 42 39 38 39 38 34 31 29 25 23 19 16 16 18 18 19 17 14 14 20 26 30 30 28 28 25 18 15 17 18 17 18 19 19 19 19 19 18 18 20 25 26 25 24 22 20 18 16 15 15 14 15 15 14 14 13 13 12 12 12 12 11 11 11 12 12 12 12 12 13 12
61 59 56 47 40 35 33 34 40 44 44 44 44 45 45 43 41 40 40 38 33 31 30 28 23 17 15 17 17 16 18 19 16 16 19 24 29 29 27 27 23 18 18 19 20 20 19 19 20 21 20 18 15 14 18 22 23 22 21 19 17 16 15 15 15 15 15 15 15 14 14 13 12 12 12 12 12 12 12 12 12 12 12 13 13 13
63 61 56 47 41 38 33 30 34 35 37 40 43 45 45 45 44 42 40 36 33 32 32 32 30 23 17 15 15 17 20 22 19 17 18 22 26 28 28 27 24 22 23 22 22 21 21 21 22 21 19 16 13 12 14 17 19 19 18 17 16 15 16 16 15 15 15 15 15 14 13 12 12 12 12 12 13 13 13 13 12 12 13 13 14 14
63 60 57 50 45 41 38 37 39 37 36 39 44 47 46 45 42 39 38 35 33 35 34 34 35 30 21 15 17 20 21 22 21 17 16 20 24 26 27 26 24 23 24 24 23 23 24 24 23 20 17 14 13 12 12 13 15 15 15 15 15 16 16 16 15 15 15 15 15 14 13 13 13 13 13 13 13 13 13 13 13 13 13 14 14 14
64 62 60 56 51 47 43 44 45 44 41 40 43 45 46 45 40 35 36 37 35 35 35 34 34 33 28 23 21 23 23 23 23 17 13 16 22 25 25 24 23 22 25 26 24 23 25 26 23 20 16 14 14 13 12 12 12 13 14 14 15 15 15 15 15 15 15 15 15 14 14 14 13 13 14 14 14 14 14 13 13 14 14 14 14 14
65 64 64 61 56 53 49 48 45 43 43 41 39 40 43 46 42 33 34 38 36 34 35 34 32 33 34 31 27 26 25 24 26 22 16 16 21 25 26 24 22 22 24 24 21 21 24 25 24 21 19 17 16 15 14 13 12 12 13 13 13 14 13 13 13 14 14 14 14 14 14 14 14 14 14 15 15 15 15 14 15 15 15 14 14 14
67 66 67 66 61 56 52 49 45 41 40 41 39 37 40 44 45 39 34 35 36 34 33 32 31 32 33 33 33 32 30 28 28 27 24 23 22 25 27 25 23 23 24 22 19 21 24 26 24 22 21 20 18 17 16 14 13 14 14 12 12 12 11 11 11 11 11 12 12 12 13 14 14 15 15 16 16 16 16 16 16 16 16 15 14 14
69 68 70 71 66 60 54 47 44 44 43 43 41 37 38 41 45 46 38 32 34 35 31 30 31 32 31 31 33 35 34 32 31 29 27 24 22 23 27 28 25 25 25 23 17 17 21 24 22 20 21 20 17 17 17 15 15 15 15 13 11 10 10 10 10 9 9 9 9 10 11 13 14 15 16 17 17 17 18 18 18 17 16 16 15 15
70 70 72 74 69 63 55 46 45 49 49 47 44 38 37 38 40 46 42 31 30 32 30 28 27 29 30 31 32 32 31 31 32 32 28 23 21 21 26 29 27 26 26 24 18 13 16 20 20 19 19 18 17 17 18 17 15 15 16 15 13 11 11 11 10 9 9 9 9 10 11 12 13 14 16 16 17 18 19 20 19 18 17 17 17 16
70 70 73 74 70 65 57 47 48 53 51 49 44 39 41 41 37 41 43 36 28 28 29 27 25 27 30 31 32 30 29 29 30 31 28 24 20 18 20 25 27 27 26 25 21 16 14 17 19 20 20 19 19 20 20 18 16 16 16 16 15 14 14 13 12 11 10 10 10 11 11 11 13 14 15 16 17 18 20 20 19 18 17 17 16 16
70 70 72 74 72 67 59 50 50 55 54 52 47 42 44 46 38 38 43 40 32 29 29 29 29 31 32 32 33 32 30 29 30 30 29 25 19 15 17 21 24 25 25 26 25 21 17 18 19 21 21 21 22 22 20 18 17 17 16 16 16 16 16 16 14 13 13 12 11 11 10 10 12 13 14 15 16 17 19 20 19 19 18 16 16 17
70 69 71 75 74 68 61 54 52 56 57 53 49 44 42 44 39 36 41 42 37 30 30 32 33 33 35 35 34 33 30 29 31 32 30 27 24 20 19 19 21 23 24 26 27 25 22 21 21 22 23 23 24 23 21 20 19 18 16 16 16 17 17 16 16 15 14 13 12 12 11 11 11 12 13 14 15 16 18 19 18 18 17 17 17 16
70 70 70 75 77 71 63 57 55 59 59 54 48 42 40 42 40 37 37 39 40 34 29 32 35 32 34 33 29 30 31 29 31 34 30 27 27 24 21 20 21 24 26 27 28 27 25 23 24 24 24 25 25 24 23 22 21 20 19 19 19 18 17 16 16 15 15 15 14 14 14 13 12 12 12 13 14 15 16 16 17 17 18 18 17 15
70 70 71 75 78 73 65 59 56 57 59 55 46 40 42 45 44 40 38 38 41 40 31 30 35 34 32 30 28 31 34 32 32 34 31 29 29 27 24 22 21 23 24 25 25 25 25 25 25 25 25 25 25 24 24 23 22 22 22 21 20 19 18 17 17 16 16 16 16 17 17 16 15 14 14 14 15 16 16 16 17 17 18 18 17 16
69 70 70 73 77 75 69 62 56 55 59 56 46 42 47 50 45 43 46 44 45 46 36 27 32 36 33 32 34 37 37 35 35 35 33 32 31 28 25 23 22 22 21 21 21 22 22 23 22 21 22 23 24 24 24 23 23 23 22 21 21 21 20 20 19 18 18 18 18 19 20 20 19 18 17 16 16 16 18 19 19 20 20 20 19 17
68 69 70 72 74 76 74 67 57 55 58 55 48 47 53 54 49 47 49 47 44 46 43 32 31 37 38 36 37 39 39 37 36 36 35 32 28 26 24 22 22 23 22 21 22 20 19 20 18 17 19 22 23 24 24 24 23 22 22 22 22 22 22 21 20 20 20 21 21 22 22 23 23 22 20 19 17 17 18 20 21 22 23 23 21 19
67 68 69 71 73 76 77 71 60 55 56 56 53 53 57 57 52 48 48 47 46 47 49 43 36 39 43 43 41 42 43 41 40 40 39 35 29 28 27 25 24 25 25 23 21 19 16 16 16 16 17 19 21 23 24 23 23 22 22 21 22 23 24 23 23 23 23 24 24 25 25 25 25 24 23 22 20 19 19 19 19 21 23 23 22 20
64 67 69 71 72 75 76 73 64 55 54 59 57 53 58 62 55 47 48 52 52 52 54 52 47 46 48 48 48 48 47 46 45 44 43 39 35 32 30 29 28 28 27 24 21 18 15 14 15 16 17 17 19 21 23 23 24 23 23 22 22 23 24 24 25 26 26 26 27 27 27 27 26 26 25 25 23 22 20 19 18 19 20 22 21 19
58 63 69 71 71 75 76 74 68 58 55 60 59 52 58 65 56 47 51 58 59 57 58 58 55 53 52 52 52 52 52 51 50 48 44 41 38 35 34 33 32 31 29 25 21 18 16 14 15 16 17 19 20 22 23 23 24 25 26 26 25 25 24 25 27 29 29 28 28 28 28 28 27 27 26 27 27 25 22 20 19 18 19 19 19 18
56 58 67 72 73 75 76 73 69 63 59 63 62 56 60 67 60 50 54 63 63 59 60 60 58 57 57 57 56 56 56 54 52 50 46 41 39 38 36 35 34 34 31 26 23 20 18 16 16 17 17 17 19 21 21 21 22 24 25 27 27 26 26 28 30 31 31 30 29 29 29 29 29 28 28 28 29 27 24 22 21 20 19 18 19 18
57 57 63 70 73 75 76 72 65 63 64 66 65 61 63 68 66 58 56 62 66 64 62 63 63 61 60 60 59 60 59 56 54 52 45 40 39 38 36 36 36 35 32 29 27 24 21 19 20 19 18 17 18 19 19 19 19 21 22 24 25 26 27 29 29 30 30 30 30 30 31 31 30 30 29 30 31 30 27 25 23 21 20 19 18 18
53 57 59 65 70 74 76 72 62 58 63 67 66 64 65 65 66 65 60 60 65 68 66 66 66 64 63 63 61 61 58 55 52 47 38 34 34 33 33 36 37 37 35 34 32 29 25 23 24 24 22 20 19 19 20 19 19 20 20 21 22 24 25 25 25 25 26 27 28 30 31 32 32 32 31 32 32 32 30 28 25 23 23 21 19 18
45 52 55 58 64 69 74 73 62 54 59 65 64 64 66 65 63 64 63 59 62 66 67 67 67 66 65 64 61 58 55 52 49 42 34 30 30 30 31 35 37 38 38 38 36 33 29 27 27 26 25 24 23 22 22 21 21 21 21 21 21 22 23 22 22 23 23 24 26 28 29 30 31 31 32 33 34 33 31 29 27 25 25 25 23 21
44 50 55 56 58 64 70 72 67 58 55 59 60 58 61 66 67 65 63 60 61 63 65 66 67 66 65 63 61 57 54 51 48 44 39 35 33 32 33 35 37 38 39 40 39 38 34 31 29 28 27 26 26 25 24 24 24 23 22 22 22 22 22 21 22 22 23 23 23 24 25 26 27 29 32 34 34 33 32 31 28 26 27 27 26 24
45 48 53 55 57 61 66 68 70 67 59 56 57 55 53 58 67 70 67 65 64 63 63 65 66 64 63 63 62 59 55 52 50 47 44 42 40 38 37 37 37 38 40 41 42 40 38 36 33 30 29 28 28 27 27 27 27 26 25 24 24 24 23 23 23 22 23 23 23 23 24 24 25 27 29 31 32 32 33 32 30 27 28 29 29 27
44 44 48 52 56 60 61 60 64 71 67 59 58 59 54 51 58 67 70 70 69 66 63 64 65 64 63 63 63 61 58 55 53 51 48 46 44 43 41 39 38 39 39 41 43 43 41 39 37 33 31 30 29 29 29 28 28 27 26 26 26 26 25 25 24 24 24 24 24 25 25 25 25 26 27 28 29 31 32 32 31 29 30 30 31 30
42 42 43 48 55 60 61 58 59 67 71 64 60 62 59 53 53 60 67 71 72 71 68 66 66 65 65 65 65 65 63 60 57 53 51 48 46 45 43 41 40 41 41 41 43 44 43 41 39 36 33 31 31 30 29 29 29 27 27 27 28 28 27 27 26 26 26 26 26 25 26 26 26 26 27 27 28 29 30 31 31 31 31 32 32 32
41 42 42 45 50 56 60 60 59 62 65 63 60 62 64 61 57 58 63 67 69 71 72 73 72 70 69 69 68 68 66 63 59 55 52 50 48 47 46 44 42 43 43 42 43 44 44 43 41 39 36 34 32 32 31 30 29 28 27 28 29 29 28 28 28 27 28 28 27 26 26 27 27 27 27 28 28 28 30 31 31 31 32 34 35 35
38 42 45 47 49 52 55 58 60 61 63 63 61 63 66 67 63 60 60 62 61 60 62 67 71 73 74 73 72 71 68 65 62 58 56 54 50 47 46 46 46 45 44 44 43 44 44 44 43 41 38 36 35 34 33 32 31 30 29 29 30 30 30 30 30 29 29 29 28 28 27 27 27 27 27 28 28 29 31 31 32 32 34 35 35 36
35 39 44 48 53 56 56 57 60 64 66 67 66 65 66 68 66 61 58 60 61 59 56 55 59 64 69 70 70 68 65 62 60 58 56 56 53 49 45 46 47 47 46 45 44 44 44 45 44 43 41 39 38 37 36 35 34 33 32 32 32 32 33 33 32 31 31 30 29 29 28 28 27 27 27 28 29 30 31 31 32 33 34 35 35 36
Wind_Direction
233 231 231 232 234 235 233 233 234 232 228 227 227 225 224 222 215 206 189 160 186 234 246 248 255 238 203 202 226 239 247 242 240 262 270 264 260 267 273 274 277 281 291 292 288 285 269 236 218 222 219 211 205 203 200 196 191 186 183 182 181 180 177 176 176 179 182 185 185 183 181 178 174 171 169 167 164 158 150 143 134 122 107 95 86 78
233 232 232 231 231 230 230 230 231 230 227 226 227 223 219 217 210 202 188 163 186 228 242 251 256 245 219 211 232 241 243 246 245 252 260 268 269 266 269 274 275 277 284 285 285 287 281 257 222 215 217 214 207 205 205 202 196 187 184 184 182 181 180 181 183 184 187 188 187 186 184 182 180 176 175 174 171 166 159 153 145 133 121 105 92 82
235 232 230 229 227 226 225 225 227 227 226 224 225 224 220 212 199 195 186 164 182 225 236 245 254 251 225 217 239 247 246 249 249 247 254 265 271 269 267 270 273 279 282 279 281 286 282 268 241 220 213 213 210 207 207 208 202 191 186 185 184 185 185 186 188 187 189 190 187 187 187 186 184 180 179 179 175 172 168 161 152 141 131 114 98 86
236 232 229 229 226 226 224 222 224 224 223 222 220 221 223 217 198 184 186 174 183 221 239 245 254 258 231 221 240 252 260 265 260 249 241 243 258 264 261 259 264 274 281 280 281 285 282 271 250 228 215 211 212 212 210 210 208 200 192 187 187 190 190 190 191 189 188 188 187 189 189 189 187 183 181 183 179 176 173 165 157 149 141 127 107 91
232 228 229 228 224 224 224 222 222 222 221 219 218 218 218 221 211 178 182 203 195 212 233 243 250 250 228 225 242 252 263 269 267 256 236 225 234 245 250 254 255 263 272 277 280 283 283 276 255 231 218 210 210 214 213 211 209 206 200 194 191 193 194 194 193 190 186 184 187 189 191 191 190 188 186 187 183 177 174 168 162 157 151 140 121 99
228 227 230 228 224 222 223 224 224 224 223 219 217 220 214 216 217 181 171 210 216 212 225 231 235 238 232 236 248 255 258 261 268 265 246 231 226 228 236 247 252 255 262 271 278 282 286 286 270 240 223 214 212 214 215 213 211 209 207 201 197 196 196 197 193 189 186 186 188 189 191 193 194 193 190 186 182 178 174 171 169 166 159 151 132 106
224 226 230 230 227 225 224 224 224 224 225 221 215 218 217 212 214 193 174 191 208 212 227 233 228 231 237 238 242 249 251 254 262 265 261 253 221 212 223 239 249 251 251 263 272 277 283 285 276 253 229 217 215 215 215 215 214 213 213 208 205 201 197 197 194 190 189 189 190 191 193 195 195 193 187 182 180 180 180 177 175 171 164 154 138 114
223 225 229 229 228 228 225 223 225 226 226 224 213 212 217 214 215 207 186 185 196 203 221 236 237 232 235 237 239 245 243 245 253 258 264 267 241 218 225 228 239 248 245 250 259 267 277 279 273 262 239 220 216 216 215 216 216 215 216 214 211 206 200 197 195 194 194 194 194 194 194 195 194 188 183 183 185 186 187 183 177 172 165 154 139 119
225 227 230 230 228 229 228 223 224 227 228 223 212 209 213 215 217 217 202 188 189 197 205 223 240 238 237 242 242 242 240 243 251 253 255 261 264 252 222 212 226 244 243 242 248 258 271 276 270 263 248 226 216 216 216 217 217 216 217 216 213 210 203 198 197 198 199 201 200 197 194 193 190 187 187 189 191 192 192 186 176 169 163 154 145 130
223 225 228 228 227 227 227 224 222 225 228 222 213 209 209 212 215 217 213 196 189 198 199 202 225 237 243 251 249 245 249 251 252 251 248 250 262 270 229 210 222 233 240 246 247 256 266 271 268 263 255 237 222 218 218 217 218 219 219 218 215 211 206 201 200 202 205 206 205 202 198 194 189 189 194 196 197 197 194 189 179 168 162 157 153 144
220 221 224 225 225 225 224 223 223 225 226 221 214 209 206 209 211 214 216 206 200 204 199 192 203 220 233 246 253 253 256 257 252 249 247 245 254 270 259 222 218 222 239 252 247 251 261 265 267 265 262 251 236 227 222 218 219 220 221 220 215 209 206 204 204 206 210 211 209 206 201 196 193 193 196 200 200 199 197 194 184 170 166 167 165 160
220 218 221 222 221 221 221 221 222 225 224 220 216 212 209 209 210 213 214 213 216 215 207 197 197 205 215 226 243 252 250 252 248 243 249 252 251 261 271 231 211 217 230 244 242 244 256 264 269 270 270 261 244 233 227 223 221 220 221 221 214 207 203 204 207 209 213 215 213 210 204 200 199 199 199 201 202 202 200 197 191 182 179 185 191 186
221 219 220 220 219 219 219 219 220 222 221 218 216 213 211 209 209 213 214 216 222 224 219 212 206 209 212 211 219 237 241 243 249 250 258 261 253 251 248 185 189 211 224 241 251 249 251 261 266 267 270 266 246 233 228 225 223 220 220 220 213 205 201 202 206 210 215 217 214 211 206 203 204 204 204 203 203 205 203 201 201 200 197 202 218 227
222 221 221 220 220 220 219 219 219 220 220 219 218 216 215 214 216 220 221 222 226 227 225 221 220 224 224 217 213 223 231 232 239 256 263 266 259 253 243 195 189 212 223 244 259 254 249 254 262 262 265 267 250 232 226 224 223 219 216 218 213 205 201 201 204 207 212 215 214 212 207 204 207 209 209 206 206 207 207 207 209 215 220 225 237 253
222 220 221 221 221 220 219 220 222 222 222 222 223 225 224 225 228 230 231 231 231 232 229 224 227 233 234 232 229 230 233 227 222 241 255 261 256 250 249 238 223 220 218 230 245 249 249 250 255 254 254 260 249 233 227 222 220 218 214 214 212 207 201 200 203 206 210 214 214 212 207 205 209 215 215 213 212 213 215 215 215 220 232 244 257 269
223 220 220 223 223 221 219 221 223 223 223 222 223 227 227 226 229 232 233 235 234 234 232 229 232 237 238 241 241 241 242 234 229 237 246 252 246 240 246 249 242 233 223 227 237 246 249 245 245 247 244 249 248 238 231 223 217 215 212 211 210 208 203 200 201 203 206 213 214 211 207 205 209 217 222 222 221 221 222 224 226 225 234 247 260 270
224 219 216 221 224 222 220 220 222 223 222 222 223 226 229 228 227 230 233 234 234 235 235 235 239 241 241 245 245 246 248 243 240 241 244 249 246 238 242 249 247 233 219 227 239 245 244 239 239 242 239 241 245 242 236 226 219 214 211 209 208 207 206 202 202 204 206 210 212 211 208 205 207 215 225 229 227 226 225 227 231 231 234 241 250 259
221 219 218 221 222 221 222 221 221 222 221 222 226 227 227 227 224 227 230 232 234 236 236 237 241 243 242 243 243 247 252 251 247 243 241 246 248 241 240 247 244 224 215 227 236 238 236 232 234 236 232 235 242 242 236 227 221 217 212 210 208 207 206 205 204 206 208 210 211 211 209 207 208 213 223 232 233 232 231 230 230 231 231 231 234 241
215 218 220 221 220 220 223 224 222 220 219 221 227 229 227 226 225 225 226 229 234 237 237 237 241 244 244 241 239 243 250 252 249 242 235 239 246 243 239 243 246 236 227 231 232 232 229 226 229 230 228 234 240 240 235 228 223 219 216 213 210 209 209 209 207 207 209 212 213 211 210 210 210 213 221 231 236 239 242 239 233 230 229 229 230 233
211 214 215 216 219 219 220 223 223 219 218 218 222 227 228 226 228 229 229 230 231 234 238 239 240 242 245 247 246 242 239 239 241 235 227 231 242 242 236 239 244 240 231 231 232 229 224 221 223 227 232 239 245 244 236 229 225 221 218 215 212 213 214 214 213 211 212 214 215 214 213 212 212 214 217 222 228 235 243 246 244 241 239 238 240 240
208 212 211 208 212 221 221 221 221 218 217 216 217 223 225 223 223 227 231 231 228 228 232 235 236 242 250 257 256 256 250 241 236 226 219 223 236 240 236 235 239 237 222 223 229 222 217 218 218 223 234 240 245 248 240 230 225 222 219 216 214 214 216 216 214 212 212 213 214 214 213 213 213 213 213 213 217 223 232 241 245 248 250 250 251 252
205 208 209 198 192 212 226 224 222 220 221 220 219 221 225 225 222 222 228 229 227 226 229 231 233 238 249 249 242 253 261 251 239 228 216 217 228 237 235 233 236 234 216 215 225 219 212 214 216 221 231 237 243 249 243 233 226 223 220 217 216 215 214 214 211 209 210 210 212 213 212 213 213 212 211 211 213 218 223 230 238 246 252 256 259 261
204 204 206 196 184 198 221 231 229 225 225 225 223 222 225 229 228 226 229 230 227 224 224 228 226 221 235 244 232 235 253 250 236 227 218 217 225 230 229 230 233 227 215 214 221 222 214 212 216 222 227 232 236 243 243 235 227 223 219 216 214 211 209 210 209 208 210 211 214 217 219 218 218 218 217 216 218 221 225 230 237 245 252 257 262 266
204 202 202 195 184 188 202 223 234 234 229 226 223 223 225 230 233 233 233 232 230 226 222 224 223 214 218 236 230 224 240 247 235 219 213 218 226 227 225 227 229 221 217 216 217 219 218 214 214 220 225 225 226 237 246 239 229 223 219 214 211 208 207 209 210 211 213 216 219 222 223 224 223 223 224 225 227 229 232 237 243 251 256 261 266 269
203 200 196 190 184 183 186 201 218 229 230 222 219 219 221 225 229 231 231 229 229 228 224 222 223 219 209 207 218 223 231 244 243 226 214 219 227 232 231 233 234 225 219 220 218 218 220 217 214 217 222 221 221 234 248 243 230 220 215 213 211 210 210 210 214 217 219 222 226 226 226 226 225 225 226 229 232 236 241 246 252 258 262 267 271 273
201 197 193 187 182 180 182 191 203 218 225 220 217 217 217 216 216 223 229 226 225 228 228 225 223 221 211 198 208 224 229 239 246 238 227 226 227 232 238 240 237 229 224 223 222 221 220 216 211 210 214 217 220 229 239 237 225 215 211 212 214 214 214 214 216 219 222 226 228 229 229 229 229 229 230 233 237 241 246 252 257 262 265 268 271 274
200 196 192 187 181 178 182 188 196 211 224 225 219 214 213 211 207 212 227 228 223 224 228 228 224 222 219 210 207 217 222 232 244 246 245 242 231 228 236 240 236 232 232 227 220 220 219 213 207 205 206 208 211 218 226 226 220 218 215 214 217 219 218 218 219 221 224 227 228 229 230 231 232 233 235 237 241 246 251 256 261 264 267 267 268 271
199 195 191 187 183 180 181 185 190 199 216 229 228 216 210 208 203 205 219 227 223 220 223 228 226 223 222 220 217 218 220 228 242 250 251 250 240 228 228 233 232 233 240 238 222 214 217 214 208 205 203 203 206 211 217 218 215 218 220 219 220 221 222 223 222 224 226 228 229 231 231 233 234 236 238 241 244 249 254 259 262 264 265 266 266 267
199 195 191 188 185 181 178 182 187 186 195 218 228 220 209 206 205 204 209 221 224 219 217 221 227 226 223 223 225 226 227 230 238 245 247 249 245 229 222 224 227 231 240 247 235 213 213 217 215 209 205 204 207 212 215 213 209 213 220 224 225 224 226 229 229 232 238 240 239 239 239 240 240 240 243 245 248 251 255 258 260 262 262 263 263 264
200 196 192 190 187 181 176 181 188 184 187 203 218 216 202 201 207 205 201 208 221 220 213 214 224 229 226 226 229 232 232 230 233 238 240 242 240 229 219 217 221 229 239 248 247 222 210 216 217 214 211 211 216 220 218 211 205 207 215 222 226 225 227 232 235 239 243 247 249 250 250 251 252 250 250 250 249 249 251 254 257 260 260 259 261 264
200 198 193 190 188 182 179 183 189 188 188 196 208 209 194 192 205 208 200 197 206 214 210 206 212 219 221 225 228 229 232 232 233 236 236 235 238 233 225 222 223 229 237 244 248 242 222 215 214 216 219 220 223 227 224 216 212 211 211 215 220 223 225 228 230 229 229 233 243 250 253 255 257 256 254 252 249 247 247 248 252 256 257 257 260 265
198 199 194 189 186 183 184 187 190 190 190 191 200 205 193 186 195 208 203 193 193 208 207 196 202 213 214 218 222 224 227 231 234 237 233 228 227 224 224 228 230 233 239 243 247 249 241 228 220 219 222 226 228 230 229 226 225 223 217 217 219 222 224 224 223 225 228 231 238 247 254 259 261 261 257 252 248 244 243 244 247 252 257 259 260 261
196 198 195 189 184 184 187 189 190 192 193 192 197 202 193 184 189 205 206 194 187 201 207 196 199 214 219 220 225 226 223 222 228 233 231 224 222 221 221 226 226 228 237 242 244 245 242 236 229 222 222 226 230 234 235 234 234 234 232 230 229 227 227 226 226 230 237 243 248 252 257 262 269 272 267 259 250 244 243 245 248 252 256 258 258 259
194 196 196 191 186 186 188 189 189 191 193 195 198 197 189 184 189 200 205 198 189 192 204 202 197 210 223 223 225 229 225 221 226 230 229 226 227 229 233 233 224 220 227 233 236 239 240 239 236 230 225 225 227 231 234 234 235 236 237 238 237 235 235 235 235 237 243 251 257 261 264 268 271 274 274 270 262 254 250 250 250 251 252 255 257 258
194 195 196 193 188 187 190 192 192 190 191 194 195 190 185 185 190 195 197 199 194 189 195 206 201 204 216 217 216 225 225 220 223 229 229 227 228 231 237 241 236 231 233 236 239 243 245 243 242 240 235 231 228 228 230 231 232 234 236 239 242 243 244 244 245 246 249 254 260 264 269 272 272 271 272 273 269 264 259 255 252 250 250 251 253 252
195 195 196 195 191 190 192 195 194 191 190 191 188 184 186 188 188 189 191 194 195 189 188 203 210 207 209 211 216 224 222 215 219 228 228 224 225 229 233 238 241 244 244 242 241 243 245 245 246 247 244 239 235 232 232 233 234 235 237 239 242 245 247 246 247 250 253 257 261 265 269 271 272 272 271 271 271 268 264 260 257 254 251 250 249 249
195 195 196 197 194 193 195 195 195 193 190 188 183 183 189 190 185 183 185 188 190 188 186 194 209 210 209 210 214 221 221 215 215 221 221 218 219 224 228 232 240 247 248 244 239 237 237 239 242 245 245 242 239 237 236 236 237 237 239 240 241 244 247 248 250 251 253 256 260 264 266 267 269 271 272 271 271 272 270 266 261 258 255 254 252 251
196 195 196 197 196 196 197 197 194 192 187 182 181 185 190 191 187 184 186 185 185 186 189 194 203 207 210 211 212 218 223 217 212 216 220 220 219 220 224 229 237 244 245 243 242 238 233 232 233 235 239 242 242 241 240 240 241 239 240 241 242 244 246 248 251 252 254 255 257 260 262 263 265 267 269 271 273 278 280 276 268 262 259 258 256 253
197 196 197 198 198 197 200 199 194 189 185 181 181 186 190 189 186 186 187 184 182 185 189 194 200 204 208 211 212 217 223 222 220 224 227 225 222 220 223 228 232 238 240 239 238 238 235 232 229 225 226 229 234 237 238 239 241 241 242 243 243 243 244 247 250 252 253 253 253 254 256 258 260 261 264 267 271 277 281 276 267 264 263 262 260 255
198 198 197 198 199 198 202 203 197 190 186 184 183 185 187 186 183 183 184 183 183 186 188 192 199 203 207 212 214 216 221 225 228 231 230 226 224 222 223 226 227 232 236 235 232 231 231 232 230 224 218 216 220 226 228 230 233 237 241 243 243 243 244 246 248 250 250 251 250 250 251 253 255 256 258 262 265 270 274 270 263 263 266 267 264 257
199 199 198 199 200 200 202 205 203 199 192 187 184 184 184 185 185 185 184 182 184 187 187 190 197 203 206 210 212 215 220 224 227 229 227 225 224 222 222 224 225 228 232 231 229 228 229 231 232 229 222 215 217 222 223 223 225 229 234 237 239 242 244 245 246 247 248 248 248 248 249 249 250 251 252 255 259 263 267 268 264 261 264 267 265 259
201 201 199 200 201 202 204 206 208 209 202 193 188 186 183 185 190 192 188 183 183 186 187 189 196 202 205 208 211 215 220 223 225 227 227 224 223 221 220 222 225 227 230 229 228 228 230 231 232 231 227 220 218 220 221 219 219 221 224 228 232 236 239 240 241 242 243 243 243 244 245 245 246 247 248 250 254 258 262 265 264 260 260 263 262 257
202 203 202 201 202 204 206 207 209 213 210 201 195 190 188 189 195 197 194 186 183 186 189 192 196 201 204 208 211 216 220 223 224 227 227 222 219 218 219 222 224 226 228 230 230 230 230 231 231 230 229 225 221 219 219 216 214 214 216 219 223 228 232 234 236 238 240 240 239 239 240 240 241 243 244 246 249 253 257 261 262 259 257 258 257 253
201 203 203 202 203 204 207 209 211 213 213 209 205 200 197 197 198 198 198 193 185 186 192 196 199 202 204 209 213 217 221 224 224 225 225 221 217 214 216 222 225 226 228 230 232 233 234 234 233 230 229 227 224 221 219 218 216 215 216 219 223 228 232 234 235 236 237 238 238 239 239 239 239 239 240 243 247 250 253 257 260 259 256 255 255 253
204 205 204 203 203 203 205 209 212 213 212 212 209 204 202 204 203 201 200 197 191 190 194 197 201 204 207 210 214 217 222 224 223 226 230 230 224 218 215 219 223 226 228 231 234 237 238 237 235 231 228 228 227 225 223 222 221 221 222 225 229 233 236 236 236 236 237 239 240 242 243 243 242 239 238 241 245 247 249 253 257 257 255 254 253 253
210 207 205 204 205 204 204 208 213 215 213 211 208 202 198 203 207 205 202 199 196 195 197 200 203 207 211 214 215 218 221 224 227 233 237 235 230 226 222 220 221 224 227 230 234 237 239 240 238 234 230 228 228 228 227 227 227 227 228 230 232 234 235 235 235 236 239 240 241 242 244 244 244 242 241 242 244 245 246 250 253 254 254 252 252 253
214 209 206 206 207 206 204 206 212 215 215 212 210 206 200 200 206 209 207 205 202 200 201 204 206 209 213 217 217 218 220 226 232 237 238 236 234 231 227 223 221 221 224 228 232 235 238 239 240 238 234 231 229 229 229 230 231 231 231 231 232 234 235 235 235 235 236 238 239 240 241 242 243 244 243 243 243 244 245 248 250 251 252 251 252 253
217 213 209 208 208 208 206 204 207 212 214 213 213 213 208 203 204 210 212 212 211 209 209 209 209 210 213 216 217 219 223 229 234 236 237 238 237 233 229 224 221 219 221 226 229 233 235 237 239 240 238 236 233 231 231 232 234 235 234 233 234 236 237 238 238 237 237 238 238 238 239 241 243 245 245 245 243 243 244 246 248 249 250 251 252 252
219 218 216 213 210 209 209 208 208 209 209 210 212 214 211 206 205 209 213 216 216 217 217 216 216 216 216 217 219 222 227 232 235 237 238 239 239 236 231 226 221 219 221 224 227 230 232 234 236 239 240 239 239 237 236 236 237 238 238 238 239 240 241 242 242 241 240 241 241 240 240 241 242 244 245 245 243 242 243 244 246 247 248 249 251 251
219 221 222 220 216 212 210 210 213 211 206 204 207 209 209 207 206 207 210 211 211 213 217 219 219 220 222 223 225 227 230 234 237 238 238 239 241 240 234 228 225 222 222 223 225 227 230 233 235 236 238 240 241 241 240 240 240 240 240 240 241 243 243 244 244 243 242 242 243 243 242 241 242 243 244 244 243 242 242 243 245 246 246 248 250 252
219 220 222 223 222 219 214 211 214 215 210 205 207 208 207 206 206 205 207 210 210 209 211 214 216 218 221 224 226 228 230 232 234 236 236 236 239 241 237 231 228 225 223 224 225 226 228 231 234 236 237 239 240 241 242 242 241 241 240 241 242 243 244 245 245 245 244 244 244 245 245 244 244 244 244 244 243 242 243 244 246 247 248 250 253 254
Height
5841 5841 5844 5849 5853 5855 5857 5859 5860 5862 5864 5866 5867 5869 5872 5874 5877 5880 5880 5882 5885 5887 5888 5889 5892 5894 5895 5895 5894 5892 5891 5893 5896 5897 5898 5899 5899 5900 5901 5901 5901 5902 5903 5904 5905 5905 5906 5906 5907 5909 5911 5913 5914 5915 5917 5918 5919 5921 5923 5925 5926 5928 5929 5931 5932 5933 5934 5936 5937 5938 5939 5940 5941 5942 5943 5943 5944 5945 5946 5947 5948 5948 5948 5949 5949 5950
5836 5839 5845 5849 5850 5851 5853 5855 5856 5858 5861 5862 5864 5866 5869 5871 5875 5879 5880 5881 5885 5886 5887 5889 5890 5892 5894 5893 5890 5890 5891 5893 5895 5897 5897 5898 5899 5900 5900 5900 5901 5902 5903 5903 5904 5904 5905 5906 5906 5908 5910 5912 5914 5915 5916 5918 5919 5920 5922 5924 5925 5927 5928 5930 5931 5932 5934 5935 5937 5938 5939 5940 5941 5942 5943 5944 5944 5945 5947 5947 5948 5949 5949 5949 5950 5950
5833 5840 5846 5846 5846 5847 5849 5851 5852 5855 5858 5859 5861 5863 5865 5868 5872 5876 5878 5880 5884 5885 5886 5888 5889 5890 5893 5892 5888 5888 5891 5892 5893 5896 5897 5897 5899 5899 5899 5900 5900 5901 5902 5902 5903 5903 5904 5905 5906 5907 5908 5911 5913 5914 5916 5918 5920 5921 5921 5923 5925 5926 5928 5929 5930 5932 5933 5935 5936 5938 5939 5940 5941 5942 5943 5944 5945 5946 5947 5948 5948 5949 5950 5950 5950 5951
5834 5841 5842 5841 5842 5843 5845 5847 5849 5851 5853 5855 5858 5860 5863 5866 5869 5873 5877 5879 5881 5885 5885 5887 5888 5888 5890 5890 5886 5887 5890 5890 5891 5894 5896 5897 5898 5897 5898 5899 5900 5900 5901 5901 5902 5902 5903 5905 5905 5906 5907 5909 5912 5914 5916 5918 5920 5921 5921 5922 5924 5925 5927 5928 5930 5931 5933 5934 5936 5937 5939 5940 5941 5942 5943 5944 5945 5946 5947 5948 5949 5949 5950 5950 5951 5951
5833 5837 5836 5836 5838 5840 5841 5843 5844 5846 5848 5852 5855 5857 5861 5865 5867 5870 5876 5880 5881 5883 5884 5886 5887 5886 5887 5888 5885 5887 5890 5888 5888 5891 5894 5897 5898 5897 5897 5899 5900 5900 5900 5900 5901 5901 5903 5904 5905 5905 5906 5908 5911 5913 5915 5917 5919 5920 5921 5921 5922 5924 5925 5927 5929 5931 5932 5934 5936 5937 5938 5940 5941 5942 5943 5943 5945 5946 5947 5948 5949 5950 5950 5951 5951 5952
5830 5832 5831 5832 5834 5836 5838 5839 5841 5843 5846 5850 5852 5856 5860 5864 5866 5868 5873 5879 5881 5881 5882 5884 5884 5883 5885 5886 5884 5886 5888 5887 5885 5887 5891 5895 5896 5896 5897 5898 5898 5899 5900 5900 5900 5901 5902 5903 5904 5905 5905 5907 5909 5912 5914 5916 5918 5919 5920 5921 5921 5923 5925 5926 5928 5930 5932 5933 5935 5936 5938 5939 5940 5942 5943 5944 5945 5946 5947 5948 5949 5950 5950 5951 5952 5952
5825 5826 5826 5828 5832 5834 5835 5836 5839 5841 5843 5846 5851 5856 5859 5860 5863 5865 5868 5873 5877 5879 5880 5881 5882 5883 5883 5884 5884 5884 5885 5885 5883 5884 5886 5890 5893 5895 5897 5898 5897 5898 5899 5899 5900 5900 5901 5902 5903 5904 5904 5906 5908 5910 5912 5914 5917 5919 5920 5921 5921 5922 5924 5926 5928 5930 5931 5932 5934 5935 5937 5938 5940 5942 5943 5944 5945 5946 5947 5948 5949 5950 5951 5951 5952 5953
5821 5822 5822 5826 5829 5830 5831 5834 5837 5839 5840 5844 5849 5853 5855 5857 5859 5862 5864 5867 5871 5876 5878 5878 5879 5881 5881 5881 5883 5883 5883 5882 5880 5880 5882 5885 5890 5894 5896 5897 5897 5897 5898 5899 5899 5900 5900 5901 5902 5903 5903 5905 5906 5909 5911 5913 5916 5918 5919 5920 5921 5923 5924 5926 5928 5929 5930 5932 5933 5934 5936 5938 5940 5942 5943 5944 5945 5946 5947 5948 5949 5950 5951 5952 5953 5953
5818 5819 5820 5823 5825 5826 5829 5833 5836 5837 5837 5841 5847 5849 5851 5854 5857 5860 5861 5862 5866 5870 5872 5874 5876 5877 5878 5879 5882 5882 5882 5881 5878 5878 5880 5883 5887 5891 5894 5896 5896 5896 5897 5898 5899 5899 5900 5900 5900 5901 5902 5904 5905 5908 5910 5912 5914 5916 5918 5919 5921 5923 5924 5926 5927 5929 5930 5931 5933 5934 5936 5938 5940 5942 5943 5944 5945 5946 5947 5948 5949 5950 5951 5952 5953 5954
5813 5815 5816 5818 5821 5824 5828 5831 5832 5833 5834 5839 5843 5845 5848 5851 5853 5857 5858 5859 5861 5861 5863 5869 5872 5873 5874 5875 5877 5879 5879 5880 5878 5877 5879 5882 5884 5888 5891 5894 5894 5895 5895 5897 5898 5898 5898 5899 5899 5900 5901 5903 5905 5907 5909 5910 5913 5915 5917 5919 5921 5923 5924 5925 5927 5928 5930 5931 5933 5935 5936 5938 5940 5942 5943 5944 5945 5947 5948 5949 5950 5951 5952 5953 5954 5954
5807 5809 5810 5812 5817 5821 5824 5827 5829 5829 5832 5836 5839 5841 5843 5845 5848 5852 5854 5857 5855 5852 5855 5863 5867 5870 5871 5871 5873 5874 5876 5878 5878 5876 5876 5879 5882 5885 5888 5891 5893 5894 5895 5895 5896 5897 5897 5897 5898 5899 5901 5903 5905 5906 5908 5910 5912 5914 5917 5919 5920 5922 5923 5925 5926 5928 5929 5931 5933 5935 5936 5938 5940 5941 5943 5944 5945 5947 5948 5949 5950 5951 5952 5953 5954 5955
5799 5801 5804 5808 5812 5816 5819 5822 5825 5826 5829 5832 5834 5836 5838 5840 5843 5845 5849 5852 5847 5846 5853 5860 5863 5865 5865 5867 5870 5872 5873 5875 5875 5874 5874 5876 5880 5883 5886 5889 5891 5893 5893 5894 5894 5895 5896 5896 5897 5898 5900 5902 5904 5906 5907 5909 5911 5913 5915 5918 5920 5921 5923 5924 5926 5927 5929 5931 5933 5935 5937 5938 5940 5941 5943 5944 5945 5947 5948 5949 5951 5952 5953 5954 5954 5955
5793 5798 5801 5805 5808 5811 5814 5817 5820 5821 5823 5826 5828 5831 5833 5835 5838 5839 5841 5843 5841 5845 5854 5859 5860 5859 5859 5863 5868 5869 5870 5872 5873 5873 5872 5873 5877 5881 5884 5887 5889 5891 5892 5893 5894 5894 5895 5896 5896 5897 5898 5900 5902 5904 5906 5908 5910 5911 5913 5916 5918 5920 5921 5923 5924 5926 5928 5930 5932 5934 5936 5938 5939 5941 5942 5944 5945 5947 5948 5950 5951 5952 5953 5954 5955 5955
5790 5795 5796 5800 5804 5807 5809 5812 5814 5815 5819 5821 5823 5826 5829 5831 5833 5835 5837 5839 5841 5846 5853 5858 5858 5855 5855 5860 5864 5865 5867 5870 5872 5872 5870 5870 5873 5877 5881 5884 5887 5890 5891 5893 5893 5893 5894 5895 5896 5896 5897 5899 5901 5903 5905 5907 5909 5910 5912 5914 5917 5919 5920 5921 5923 5925 5927 5929 5931 5933 5936 5938 5939 5941 5942 5944 5945 5947 5948 5950 5951 5952 5953 5954 5955 5955
5784 5787 5791 5796 5799 5802 5804 5807 5811 5814 5817 5820 5823 5825 5828 5830 5832 5833 5836 5838 5841 5844 5849 5854 5852 5850 5852 5857 5862 5863 5865 5868 5871 5871 5870 5868 5869 5873 5877 5880 5884 5887 5890 5892 5893 5892 5893 5894 5895 5895 5896 5898 5900 5902 5904 5906 5907 5909 5911 5913 5915 5917 5918 5920 5921 5923 5925 5928 5930 5932 5935 5937 5939 5940 5942 5943 5945 5947 5948 5949 5951 5952 5952 5953 5954 5955
5776 5782 5790 5793 5794 5798 5802 5805 5808 5811 5813 5818 5821 5822 5824 5828 5830 5832 5834 5837 5840 5842 5844 5847 5846 5847 5851 5855 5860 5862 5862 5866 5868 5869 5869 5867 5867 5869 5872 5876 5880 5884 5887 5889 5891 5891 5892 5893 5893 5894 5896 5897 5899 5901 5903 5905 5906 5908 5909 5911 5913 5915 5916 5918 5919 5921 5923 5926 5928 5931 5933 5936 5938 5939 5941 5943 5944 5946 5947 5949 5950 5951 5952 5953 5954 5955
5770 5778 5785 5787 5789 5794 5799 5802 5804 5806 5810 5814 5816 5818 5822 5826 5829 5830 5831 5834 5836 5837 5839 5842 5843 5847 5850 5852 5856 5857 5858 5862 5865 5866 5866 5865 5865 5867 5868 5873 5878 5882 5885 5887 5889 5890 5891 5892 5892 5893 5895 5896 5898 5900 5902 5904 5905 5906 5908 5909 5911 5913 5915 5916 5918 5920 5922 5924 5927 5930 5932 5935 5937 5938 5940 5941 5943 5945 5946 5948 5949 5950 5951 5952 5953 5954
5765 5772 5777 5780 5784 5790 5795 5798 5800 5802 5806 5809 5812 5816 5821 5823 5825 5827 5828 5830 5831 5833 5836 5839 5841 5844 5846 5848 5852 5853 5854 5857 5860 5862 5863 5861 5861 5864 5865 5869 5875 5879 5883 5885 5887 5888 5889 5890 5891 5892 5893 5894 5896 5899 5900 5902 5904 5905 5906 5907 5909 5911 5913 5915 5916 5918 5920 5923 5925 5928 5931 5933 5935 5937 5939 5940 5942 5944 5945 5947 5948 5949 5950 5951 5952 5953
5759 5764 5768 5774 5781 5787 5791 5793 5794 5798 5802 5806 5810 5813 5815 5817 5820 5822 5823 5825 5828 5830 5834 5837 5838 5840 5841 5843 5848 5850 5851 5853 5855 5857 5858 5857 5857 5859 5862 5866 5871 5876 5880 5882 5884 5885 5886 5888 5889 5891 5892 5893 5894 5897 5898 5901 5902 5904 5905 5906 5908 5910 5911 5912 5914 5916 5919 5922 5924 5927 5929 5932 5934 5936 5937 5939 5941 5942 5944 5945 5946 5947 5949 5950 5951 5952
5753 5756 5761 5769 5776 5781 5784 5784 5787 5793 5798 5803 5805 5806 5809 5813 5816 5818 5820 5823 5826 5829 5832 5834 5836 5836 5838 5840 5844 5847 5848 5850 5851 5851 5853 5854 5854 5855 5858 5862 5867 5873 5877 5879 5881 5882 5885 5886 5888 5889 5890 5891 5893 5895 5897 5899 5901 5903 5904 5905 5907 5909 5910 5912 5914 5916 5918 5921 5923 5925 5928 5930 5933 5934 5936 5938 5939 5941 5942 5943 5944 5946 5947 5948 5949 5950
5744 5748 5755 5763 5770 5774 5775 5776 5782 5789 5794 5797 5798 5799 5803 5808 5812 5815 5818 5821 5824 5827 5829 5832 5833 5835 5838 5839 5840 5842 5845 5847 5848 5848 5850 5852 5852 5852 5855 5859 5864 5870 5874 5876 5877 5880 5882 5884 5885 5886 5887 5889 5890 5893 5896 5898 5900 5902 5903 5904 5906 5907 5909 5911 5913 5915 5917 5919 5922 5924 5927 5929 5931 5933 5934 5936 5938 5939 5940 5941 5943 5944 5945 5946 5947 5948
5735 5740 5748 5756 5762 5767 5770 5774 5781 5787 5790 5794 5796 5796 5798 5803 5808 5811 5812 5816 5822 5826 5828 5830 5832 5835 5837 5837 5837 5839 5841 5844 5846 5847 5848 5850 5850 5850 5853 5857 5862 5868 5872 5874 5875 5877 5879 5881 5883 5884 5885 5887 5889 5892 5895 5897 5899 5901 5902 5904 5905 5907 5909 5910 5912 5913 5915 5918 5920 5923 5925 5927 5929 5931 5933 5934 5936 5937 5939 5940 5941 5942 5943 5944 5945 5946
5725 5734 5744 5751 5756 5762 5770 5775 5778 5782 5787 5792 5795 5796 5798 5801 5805 5807 5809 5814 5819 5824 5826 5829 5831 5834 5835 5834 5835 5837 5839 5841 5844 5845 5846 5847 5847 5848 5851 5855 5860 5866 5869 5872 5873 5875 5877 5879 5880 5882 5883 5886 5889 5891 5894 5896 5898 5900 5901 5903 5904 5906 5907 5908 5910 5912 5914 5917 5919 5921 5923 5925 5927 5929 5931 5933 5934 5935 5937 5938 5939 5940 5942 5942 5943 5944
5723 5732 5740 5749 5754 5758 5765 5772 5774 5778 5782 5786 5790 5793 5796 5797 5801 5805 5809 5813 5817 5820 5824 5826 5828 5831 5833 5832 5834 5836 5837 5838 5841 5843 5844 5845 5845 5847 5849 5853 5858 5862 5866 5869 5871 5873 5874 5876 5877 5879 5882 5885 5888 5890 5892 5895 5897 5898 5900 5901 5903 5904 5905 5907 5909 5911 5913 5915 5918 5920 5922 5924 5926 5928 5929 5931 5932 5933 5935 5936 5938 5939 5940 5941 5941 5942
5720 5726 5733 5744 5750 5752 5758 5765 5769 5771 5774 5778 5783 5787 5792 5795 5798 5802 5806 5810 5813 5816 5820 5822 5825 5829 5832 5833 5833 5834 5835 5836 5838 5841 5843 5844 5843 5845 5848 5851 5855 5860 5863 5866 5869 5871 5872 5873 5875 5878 5881 5883 5886 5888 5891 5893 5895 5896 5897 5899 5901 5902 5904 5906 5908 5910 5912 5914 5916 5919 5921 5922 5924 5926 5928 5929 5930 5932 5933 5935 5936 5937 5938 5939 5939 5940
5712 5719 5727 5736 5742 5746 5752 5758 5762 5765 5767 5772 5777 5782 5787 5792 5796 5799 5802 5805 5809 5812 5815 5819 5823 5827 5829 5832 5833 5833 5833 5834 5836 5838 5841 5842 5842 5842 5845 5849 5853 5856 5859 5863 5866 5868 5869 5871 5874 5877 5879 5882 5885 5887 5889 5891 5893 5894 5895 5896 5898 5900 5902 5904 5906 5908 5911 5913 5915 5917 5919 5921 5922 5924 5925 5927 5928 5930 5931 5933 5934 5935 5936 5936 5937 5937
5706 5714 5721 5729 5736 5741 5746 5753 5759 5762 5765 5768 5772 5777 5782 5788 5794 5797 5798 5801 5806 5810 5812 5815 5820 5824 5825 5829 5832 5832 5832 5833 5834 5836 5839 5840 5840 5840 5842 5846 5850 5853 5855 5859 5863 5865 5866 5869 5872 5875 5877 5880 5883 5885 5887 5889 5891 5892 5893 5894 5896 5898 5901 5903 5905 5907 5909 5911 5913 5915 5917 5919 5920 5922 5923 5925 5926 5928 5929 5931 5932 5933 5934 5934 5935 5935
5700 5708 5715 5722 5729 5733 5740 5748 5752 5756 5761 5765 5769 5774 5778 5783 5790 5793 5795 5798 5803 5807 5810 5813 5817 5820 5821 5825 5829 5829 5830 5832 5832 5834 5835 5837 5839 5839 5840 5843 5847 5849 5851 5855 5859 5862 5863 5866 5870 5873 5875 5877 5880 5882 5885 5887 5889 5890 5891 5893 5895 5897 5899 5901 5903 5905 5907 5910 5912 5914 5915 5917 5918 5920 5921 5923 5924 5926 5927 5929 5930 5931 5931 5932 5933 5934
5695 5701 5706 5712 5719 5726 5735 5743 5745 5747 5754 5760 5765 5770 5775 5780 5785 5789 5793 5797 5800 5805 5809 5811 5814 5817 5819 5822 5825 5826 5828 5830 5831 5831 5832 5834 5837 5839 5840 5841 5844 5846 5848 5851 5856 5860 5862 5864 5867 5870 5872 5875 5877 5880 5883 5885 5888 5889 5890 5892 5894 5896 5898 5900 5902 5904 5906 5908 5910 5912 5913 5915 5916 5918 5919 5920 5922 5924 5925 5926 5927 5928 5929 5930 5931 5932
5689 5696 5700 5707 5717 5726 5733 5740 5742 5743 5748 5754 5759 5766 5772 5778 5782 5786 5791 5796 5799 5803 5807 5810 5813 5815 5816 5818 5820 5822 5825 5827 5828 5828 5830 5832 5834 5837 5838 5840 5842 5844 5846 5848 5853 5857 5860 5862 5865 5867 5870 5872 5875 5877 5881 5884 5886 5888 5890 5891 5893 5895 5897 5899 5901 5903 5905 5907 5909 5910 5912 5913 5914 5916 5917 5918 5920 5921 5922 5923 5924 5926 5927 5928 5928 5929
5684 5691 5698 5706 5717 5726 5732 5736 5739 5741 5744 5749 5755 5760 5767 5773 5778 5783 5788 5793 5797 5801 5805 5809 5811 5812 5813 5815 5817 5820 5822 5823 5824 5826 5828 5830 5833 5835 5837 5839 5841 5842 5844 5847 5850 5853 5857 5860 5862 5865 5867 5870 5873 5875 5878 5881 5884 5886 5888 5890 5893 5895 5897 5899 5901 5903 5905 5906 5907 5909 5910 5911 5913 5914 5915 5916 5917 5918 5919 5920 5921 5923 5924 5925 5926 5927
5678 5688 5696 5704 5714 5723 5726 5728 5734 5737 5739 5742 5748 5755 5762 5768 5774 5779 5784 5790 5795 5799 5802 5806 5808 5809 5809 5810 5813 5816 5819 5820 5821 5823 5825 5829 5832 5834 5835 5837 5839 5841 5843 5845 5847 5851 5854 5857 5860 5863 5866 5868 5871 5873 5876 5879 5881 5884 5886 5889 5892 5894 5896 5898 5900 5902 5903 5905 5906 5907 5909 5910 5911 5912 5913 5914 5914 5915 5916 5917 5919 5920 5921 5923 5924 5924
5674 5684 5694 5701 5709 5716 5718 5723 5728 5731 5734 5739 5745 5752 5761 5767 5772 5776 5780 5786 5792 5796 5800 5803 5805 5806 5806 5807 5809 5813 5815 5817 5818 5820 5822 5826 5829 5831 5833 5834 5837 5840 5842 5843 5845 5848 5851 5854 5857 5861 5864 5866 5868 5871 5873 5876 5878 5881 5884 5887 5889 5892 5894 5896 5899 5900 5902 5903 5905 5906 5907 5908 5909 5910 5911 5912 5912 5913 5914 5915 5916 5918 5919 5920 5921 5922
5670 5680 5690 5697 5704 5708 5712 5718 5723 5725 5733 5740 5745 5753 5761 5766 5769 5772 5778 5784 5790 5794 5798 5801 5803 5805 5804 5804 5807 5809 5811 5814 5816 5817 5820 5824 5827 5829 5831 5833 5835 5837 5839 5841 5843 5845 5848 5850 5853 5856 5860 5863 5866 5868 5870 5873 5875 5878 5881 5883 5886 5889 5891 5894 5896 5898 5900 5901 5902 5904 5905 5906 5907 5908 5909 5910 5911 5911 5912 5913 5914 5915 5916 5917 5918 5920
5667 5674 5684 5692 5700 5705 5710 5715 5719 5723 5731 5739 5745 5753 5758 5760 5763 5768 5774 5780 5786 5790 5795 5798 5800 5801 5801 5801 5803 5805 5807 5810 5812 5815 5818 5821 5824 5827 5829 5831 5832 5834 5836 5838 5841 5843 5845 5847 5849 5852 5855 5859 5862 5865 5867 5869 5872 5874 5877 5880 5883 5886 5888 5891 5893 5895 5897 5899 5900 5901 5902 5904 5905 5906 5907 5908 5909 5909 5910 5911 5911 5912 5913 5914 5915 5916
5665 5672 5680 5688 5695 5700 5704 5709 5714 5720 5728 5736 5743 5749 5752 5754 5759 5764 5767 5771 5776 5783 5790 5794 5796 5797 5797 5798 5799 5801 5803 5806 5809 5812 5814 5816 5820 5825 5827 5829 5830 5831 5833 5836 5838 5840 5842 5844 5847 5849 5852 5855 5858 5861 5863 5866 5868 5871 5874 5877 5880 5883 5885 5888 5890 5892 5894 5896 5897 5899 5900 5901 5902 5903 5904 5905 5906 5907 5907 5908 5908 5909 5910 5910 5911 5913
5662 5670 5677 5683 5689 5693 5696 5701 5708 5716 5726 5736 5741 5745 5747 5751 5756 5759 5760 5763 5770 5778 5785 5789 5792 5792 5792 5793 5794 5795 5798 5801 5805 5808 5810 5813 5819 5823 5825 5826 5827 5828 5830 5832 5834 5837 5840 5842 5844 5847 5850 5852 5855 5858 5860 5863 5865 5868 5871 5874 5877 5880 5882 5884 5887 5889 5891 5893 5895 5896 5897 5898 5899 5900 5901 5902 5903 5904 5904 5904 5905 5905 5906 5907 5908 5909
5660 5666 5671 5677 5684 5689 5693 5698 5706 5716 5724 5730 5734 5737 5740 5747 5754 5755 5755 5759 5766 5772 5777 5782 5785 5786 5786 5789 5791 5791 5792 5796 5799 5802 5806 5812 5817 5820 5821 5823 5825 5825 5827 5829 5832 5835 5837 5840 5842 5845 5847 5850 5852 5855 5857 5860 5863 5866 5868 5871 5874 5877 5879 5881 5884 5886 5888 5890 5892 5893 5894 5895 5896 5897 5898 5899 5900 5901 5901 5901 5902 5902 5902 5903 5904 5906
5656 5662 5667 5673 5680 5686 5692 5697 5705 5713 5717 5720 5723 5728 5733 5741 5749 5751 5750 5754 5759 5763 5768 5773 5775 5776 5778 5783 5786 5787 5788 5791 5794 5798 5803 5809 5813 5816 5818 5820 5821 5822 5824 5827 5830 5833 5835 5838 5840 5842 5844 5847 5849 5851 5854 5857 5860 5862 5865 5868 5870 5873 5875 5878 5880 5882 5884 5886 5888 5889 5891 5892 5893 5895 5895 5896 5897 5898 5898 5899 5899 5899 5899 5900 5901 5903
5650 5657 5663 5670 5676 5682 5688 5694 5702 5706 5706 5709 5714 5721 5728 5738 5744 5743 5743 5746 5750 5754 5758 5763 5767 5769 5772 5777 5781 5782 5783 5786 5790 5794 5799 5805 5809 5813 5815 5817 5818 5820 5822 5825 5828 5831 5833 5835 5837 5839 5841 5843 5846 5848 5850 5853 5856 5859 5861 5864 5866 5868 5871 5874 5876 5877 5879 5880 5883 5885 5887 5889 5890 5892 5893 5893 5894 5895 5896 5896 5896 5897 5897 5897 5898 5899
5646 5653 5660 5667 5673 5679 5684 5691 5697 5698 5698 5702 5708 5714 5723 5734 5737 5734 5733 5738 5743 5748 5752 5757 5762 5765 5767 5770 5774 5776 5778 5782 5785 5789 5794 5801 5806 5810 5813 5815 5816 5818 5821 5824 5827 5829 5831 5833 5835 5836 5838 5841 5843 5845 5847 5849 5852 5855 5858 5859 5861 5864 5867 5869 5871 5872 5874 5876 5878 5881 5883 5885 5886 5888 5889 5890 5890 5891 5892 5893 5894 5894 5895 5895 5896 5896
5643 5649 5656 5664 5670 5676 5680 5686 5690 5691 5693 5700 5706 5709 5717 5724 5724 5723 5727 5733 5738 5742 5747 5752 5756 5759 5761 5765 5769 5771 5774 5779 5782 5785 5791 5798 5804 5808 5812 5814 5815 5818 5820 5822 5825 5827 5829 5831 5833 5834 5836 5839 5841 5843 5845 5847 5849 5852 5854 5856 5859 5861 5863 5864 5866 5867 5869 5871 5873 5876 5878 5880 5882 5884 5885 5886 5887 5888 5889 5890 5891 5892 5892 5893 5893 5894
5641 5647 5653 5660 5667 5673 5678 5682 5684 5684 5688 5697 5703 5706 5710 5713 5713 5717 5724 5730 5734 5738 5743 5747 5749 5751 5755 5760 5764 5768 5772 5776 5780 5785 5791 5798 5802 5806 5809 5811 5813 5816 5818 5820 5822 5824 5827 5829 5830 5832 5834 5836 5839 5840 5842 5844 5847 5849 5851 5853 5856 5857 5859 5860 5862 5864 5866 5867 5869 5871 5873 5875 5877 5879 5881 5882 5883 5884 5885 5887 5888 5889 5889 5890 5891 5891
5637 5641 5646 5654 5661 5667 5673 5676 5677 5679 5684 5691 5696 5699 5701 5703 5707 5713 5721 5727 5733 5738 5742 5744 5746 5747 5750 5755 5761 5766 5771 5774 5779 5785 5791 5795 5798 5802 5805 5807 5809 5812 5814 5816 5818 5821 5823 5825 5827 5830 5832 5834 5836 5838 5840 5842 5844 5846 5849 5851 5853 5854 5856 5858 5860 5861 5863 5864 5866 5867 5869 5870 5872 5874 5876 5878 5878 5880 5882 5883 5884 5886 5886 5887 5888 5889
5631 5633 5639 5646 5651 5656 5663 5668 5670 5674 5680 5686 5689 5692 5696 5701 5706 5712 5718 5726 5732 5737 5740 5742 5744 5746 5749 5753 5758 5763 5768 5772 5777 5782 5787 5791 5794 5798 5801 5803 5805 5807 5810 5812 5814 5816 5819 5821 5824 5827 5829 5831 5833 5835 5838 5840 5842 5844 5846 5848 5850 5851 5853 5855 5856 5858 5860 5861 5862 5864 5865 5866 5868 5870 5871 5873 5874 5876 5878 5879 5881 5882 5883 5883 5884 5885
5625 5628 5635 5641 5645 5651 5660 5666 5667 5670 5676 5681 5684 5688 5694 5699 5704 5710 5716 5722 5728 5733 5737 5740 5742 5745 5749 5753 5756 5760 5765 5769 5773 5777 5782 5786 5789 5792 5796 5799 5801 5804 5806 5808 5810 5812 5815 5817 5820 5823 5826 5828 5830 5832 5835 5837 5839 5841 5843 5845 5846 5848 5849 5851 5853 5855 5856 5858 5859 5860 5861 5863 5864 5865 5867 5868 5870 5871 5873 5875 5877 5878 5879 5879 5881 5881
5624 5628 5634 5639 5645 5652 5659 5663 5662 5663 5669 5675 5679 5684 5691 5696 5701 5707 5712 5718 5723 5729 5732 5736 5741 5745 5748 5751 5754 5758 5763 5767 5770 5773 5776 5780 5783 5787 5791 5795 5798 5800 5802 5804 5806 5808 5811 5813 5816 5819 5822 5825 5827 5829 5832 5834 5835 5838 5840 5841 5843 5844 5845 5847 5849 5851 5852 5854 5855 5856 5858 5859 5860 5862 5863 5864 5865 5867 5869 5871 5872 5874 5875 5876 5877 5877
5624 5629 5633 5637 5642 5648 5653 5656 5654 5654 5663 5672 5676 5681 5686 5690 5693 5700 5707 5713 5720 5725 5728 5732 5737 5741 5744 5747 5750 5755 5759 5763 5766 5769 5772 5775 5779 5783 5787 5791 5794 5796 5798 5800 5802 5804 5807 5809 5812 5815 5818 5821 5823 5826 5828 5830 5832 5834 5836 5838 5839 5840 5842 5844 5846 5847 5849 5850 5851 5852 5854 5855 5857 5858 5859 5860 5861 5863 5866 5867 5868 5869 5871 5872 5872 5873
5623 5628 5631 5634 5639 5644 5651 5655 5654 5656 5666 5674 5675 5675 5679 5683 5688 5694 5700 5706 5713 5719 5723 5728 5732 5735 5739 5742 5746 5750 5755 5759 5762 5766 5768 5771 5774 5778 5782 5786 5789 5792 5794 5796 5798 5800 5803 5806 5808 5811 5814 5817 5819 5821 5824 5826 5828 5831 5833 5834 5835 5837 5839 5840 5842 5843 5845 5846 5847 5848 5850 5851 5853 5854 5855 5856 5858 5860 5862 5863 5864 5865 5866 5867 5867 5868
5623 5625 5627 5630 5635 5640 5646 5651 5651 5655 5664 5669 5669 5670 5674 5680 5686 5690 5692 5697 5705 5711 5716 5722 5726 5730 5734 5738 5742 5747 5751 5755 5758 5762 5764 5767 5770 5773 5777 5781 5784 5787 5789 5792 5794 5797 5799 5802 5804 5807 5810 5813 5815 5817 5819 5822 5824 5827 5829 5830 5832 5833 5835 5836 5838 5839 5841 5842 5843 5844 5846 5847 5848 5850 5852 5853 5855 5856 5857 5858 5859 5860 5861 5862 5862 5863
5619 5620 5621 5623 5627 5631 5637 5641 5643 5647 5654 5659 5660 5662 5667 5673 5679 5685 5689 5694 5701 5707 5711 5715 5719 5723 5729 5733 5738 5743 5746 5750 5754 5757 5760 5762 5766 5769 5772 5776 5779 5782 5785 5787 5790 5793 5795 5798 5800 5803 5806 5808 5810 5813 5815 5818 5820 5822 5824 5826 5828 5829 5830 5832 5833 5835 5837 5838 5839 5840 5841 5843 5844 5846 5848 5849 5851 5852 5852 5853 5855 5856 5856 5857 5858 5858